COSMOS 1275 DEB, 42230

Orbit data source: Space-Track

COSMOS 1275 DEB, 42230 is space debris in LEO originally from a launch on Thu, 04 Jun 1981 UTC launched from the Plesetsk Missile And Space Complex (PKMTR). Debris objects in space refer to the collection of defunct objects orbiting the Earth. Examples of debris include non-operational satellites, rocket bodies, and fragments generated from explosions, collisions, or faulty payload assembly.

Loading next visibility...
Identifier
42230, 1981-053UW
Orbit
LEO
Country
Flag of CISCIS
Related business
Manufacturer
Unknown
Mission
Spacecraft
Bus & Motor
Unknown
Mass
Unknown
Launch date (UTC)
1981-06-04 (44 years ago)
Launch vehicle
Unknown
Launch site
Plesetsk Missile And Space Complex (PKMTR)
Object type
Payload
Rocket body
Debris
Shape & HBR
Unknown shape, 0.1 m
Radar Cross Section
Small (<0.1 m²)

Expand to show TLE details & history
Last TLE update: 1 week ago

TLE from 1 week ago
0 COSMOS 1275 DEB
1 42230U 81053UW  25280.41011732  .00003183  00000-0  16203-2 0  9993
2 42230  82.7511 168.4953 0043574 333.2169  26.6759 14.15064830591230
Epoch: 2025-10-07T09:50Z
TLE epoch observation values (Epoch: 2025-10-07T09:50:34.136Z)
Latitude
0.00004°
Longitude
4.55366°
Altitude
816.952 km
Speed
7.459 km/s
True Right ascension
11h 13m 58s
True Declination
0° 00' 00"
Sunlit
Object was in daylight at epoch
Visualization orbit readout
Latitude
Unknown
Longitude
Unknown
Altitude
Unknown
Speed
Unknown
Apparent Right ascension
Unknown
Apparent Declination
Unknown
Sunlit
N/A
Visualization observer readout
Local Sidereal Time
05:43:00
Azimuth
Unknown
Elevation
Unknown
Doppler factor
Unknown
Orbital elements
Apogee altitude
870.641 km
Perigee altitude
807.744 km
Semi-major axis
7,217.33 km
Eccentricity
0.00436
Inclination
82.7511°
RAAN
168.4953°
Arg. of periapsis
333.2169°
True anomaly
26.90116°
Mean anomaly
26.6759°
Eccentric anomaly
26.78842°
Mean motion
3.5398 °/min
Orbital period
101.7 mins
BSTAR
0.0016203
Loading maneuver chart data...
Computing Atmospheric mass density...

Documentation

Showing up to 5 results
|